Tracking 28790 objects as of 19-Apr-2024
HD Live streaming from Space Station
objects crossing your sky now

COSMOS 397 DEB

Track COSMOS 397 DEB now!
10-day predictions


NORAD ID: 5011
Int'l Code: 1971-015E
Perigee: 536.5 km
Apogee: 1,198.3 km
Inclination: 65.7 °
Period: 102.1 minutes
Semi major axis: 7238 km
RCS: 0.0166 m2 (small)
Launch date: February 25, 1971
Source: Commonwealth of Independent States (former USSR) (CIS)
Launch site: TYURATAM MISSILE AND SPACE COMPLEX (TTMTR)

Note: This is SATELLITE DEBRIS
Your satellite tracking list
Your tracking list is empty




NASA's NSSDC Master Catalog

Two Line Element Set (TLE):
1 05011U 71015E   24109.46264778  .00014578  00000-0  31094-2 0  9995
2 05011  65.6672 134.5852 0457097  45.8846 317.8899 14.09742089608571
Source of the keplerian elements: AFSPC